Location: Houston
(29.7630°N, 95.3630°W)
Time: 17:30:13
(UTC-05:00)

Saudisat 1A - Visible Passes

Search period start: 27 April 2017 00:00
Search period end: 07 May 2017 00:00
Orbit: 572 x 620 km, 64.6° (Epoch: 26 April)

Date Brightness Start Highest point End Pass type
(mag) Time Alt. Az. Time Alt. Az. Time Alt. Az.
27 Apr 10.7 05:57:08 10° N 06:00:43 24° NE 06:04:14 10° ESE visible
27 Apr 10.4 21:35:42 10° WSW 21:39:23 25° NW 21:43:05 10° N visible
28 Apr 9.3 06:06:34 10° NNW 06:10:48 45° ENE 06:14:57 10° SE visible
28 Apr 11.4 21:47:17 10° W 21:49:35 14° NW 21:51:54 10° NNW visible
29 Apr 8.0 06:16:23 10° NNW 06:20:47 87° WSW 06:25:05 10° SSE visible
29 Apr 8.2 20:15:21 10° SSW 20:19:50 80° WNW 20:24:20 10° NNE visible
30 Apr 11.2 04:48:32 10° NNE 04:51:06 15° NE 04:53:38 10° E visible
30 Apr 9.7 20:25:38 10° SW 20:29:50 40° WNW 20:34:05 10° N visible
01 May 10.2 04:57:30 10° N 05:01:16 27° ENE 05:04:57 10° ESE visible
01 May 11.0 20:36:28 10° WSW 20:39:56 22° NW 20:43:26 10° N visible
02 May 8.8 05:07:02 10° NNW 05:11:20 53° ENE 05:15:32 10° SE visible
02 May 11.5 20:48:23 10° WNW 20:50:10 12° NW 20:51:57 10° NNW visible
03 May 7.8 05:16:55 10° NNW 05:21:18 74° WSW 05:25:34 10° SSE visible
04 May 10.8 03:48:45 10° NNE 03:51:39 17° NE 03:54:32 10° E visible
04 May 8.5 05:27:11 10° NW 05:31:09 35° WSW 05:35:04 10° S visible
05 May 9.7 03:57:54 10° N 04:01:49 31° ENE 04:05:39 10° ESE visible
05 May 9.4 05:38:02 10° WNW 05:40:56 18° WSW 05:42:28 15° SW visible
06 May 9.3 04:07:30 10° NNW 04:10:08 34° N 04:10:08 34° N visible
